STARLINK-11378, 62020

Orbit data source: Space-Track

STARLINK-11378, 62020 is a payload satellite owned by SpaceX/Seattle (US) in LEO that was launched on Mon, 18 Nov 2024 UTC via an FALCON 9 launch vehicle from the Air Force Western Test Range (AFWTR). Payload-class satellites include a variety of spacecraft equipped with specific instruments for various scientific and technological missions. These include communications satellites like Starlink; space stations such as the ISS; scientific satellites like the Hubble; Earth observation satellites from companies like Planet Labs, Umbra, and HawkEye 360; GPS; miniature CubeSats for education and research; and military/defense satellites.

Loading next visibility...
Identifier
62020, 2024-213N
Orbit
LEO
Last TLE update
1 day ago
Origin
Manufacturer
SpaceX/Seattle
Mission
Operational Commercial Communications
Bus & Motor
STARLINK V2M, Unknown motor
Mass
730 kg wet, ~700 kg dry
Launch date (UTC)
2024-11-18 (8 months ago)
Launch vehicle
FALCON 9
Launch site
Air Force Western Test Range (AFWTR)
Object type
Payload
Rocket body
Debris
Shape & HBR
Box + 2 Pan, 29 m
Radar Cross Section
36.964 m², Large (>1 m²)

Expand to show TLE details & history

TLE from 1 day ago
0 STARLINK-11378
1 62020U 24213N   25188.14145722  .00179083  00000-0  14501-2 0  9993
2 62020  53.1564 171.3858 0001093  73.3638 286.7500 15.69730398 36358
Epoch: 2025-07-07T03:23Z
TLE epoch observation values (Epoch: 2025-07-07T03:23:41.903Z)
Latitude
-0.00002°
Longitude
-164.89387°
Altitude
360.371 km
Speed
7.694 km/s
True Right ascension
11h 25m 32s
True Declination
0° 00' 00"
Sunlit
Object was in daylight at epoch
Visualization orbit readout
Latitude
-52.90168°
Longitude
89.36814°
Altitude
377.528 km
Speed
7.683 km/s
Apparent Right ascension
06h 25m 39s
Apparent Declination
-49° 55' 20"
Sunlit
Object is in daylight
Visualization observer readout
Local Sidereal Time
20:06:36
Azimuth
127.833° SE
Elevation
-69.661°
Doppler factor
1
Orbital elements
Apogee altitude
360.666 km
Perigee altitude
359.193 km
Semi-major axis
6,738.067 km
Eccentricity
0.00011
Inclination
53.1564°
RAAN
171.3858°
Arg. of periapsis
73.3638°
True anomaly
Unknown
Mean anomaly
286.75°
Eccentric anomaly
Unknown
Mean motion
3.9241 °/min
Orbital period
91.74 mins
BSTAR
0.0014501
Loading maneuver chart data...
Loading SW <> Apogee altitude chart data...
Loading historical data...
Loading historical data...
Loading historical data...
Loading historical data...
Loading historical data...
Loading historical data...
Loading historical data...

STARLINK-11378 Visibility forecast

Observer location: undefined°, undefined°

Span
Click to sort rows by Start time (UTC) header in descending order
Start Az.
Max El. time (UTC)
Max El. Az.
Max El.
End time (UTC)
End Az.
4 mins2025-07-08 08:56:57.957Z284.44° WNW2025-07-08 08:58:57.957Z229.388° WSW26.552°2025-07-08 09:00:57.957Z170.439° S
4 mins2025-07-09 01:25:57.957Z245.859° WSW2025-07-09 01:27:57.957Z1.511° NNE39.433°2025-07-09 01:29:57.957Z42.12° NE
4 mins2025-07-09 07:50:57.957Z318.063° NNW2025-07-09 07:51:57.957Z353.844° N43.537°2025-07-09 07:54:57.957Z126.257° SE
|